Temperature
11 11 11 11 11 11 10 10 9 9 9 8 8 8 8 8 7 7 7 7 7 7 7 7 6 6 6 6 6 6 6 6 6 6 6 6 6 6 6 6 5 5 5
10 10 10 10 9 9 9 8 8 8 7 7 7 7 7 7 6 6 6 6 6 6 6 5 5 5 5 5 5 5 5 5 5 5 5 6 6 6 5 5 5 5 5
9 9 9 8 8 8 7 7 7 7 7 6 6 6 6 6 6 5 5 5 5 5 4 4 4 4 4 4 4 4 4 4 4 5 5 5 5 5 5 5 5 5 5
8 8 7 7 7 7 6 6 6 6 6 6 6 5 5 5 5 5 4 4 4 4 4 4 4 4 4 4 4 4 4 4 4 4 4 5 5 5 5 5 5 5 5
7 7 6 6 6 6 6 5 5 5 5 5 5 5 5 5 4 4 4 4 4 4 4 4 4 4 4 4 4 4 4 4 4 4 4 4 5 5 5 4 4 4 4
6 6 6 6 5 5 5 5 5 4 4 4 4 4 4 4 4 4 4 4 4 3 3 3 4 4 3 3 3 3 3 3 3 4 4 4 4 4 4 4 4 4 4
6 5 5 5 5 5 5 4 4 4 4 4 4 4 4 4 4 4 4 4 3 3 3 3 3 3 3 3 3 3 3 3 3 3 4 4 4 4 4 4 4 4 4
6 5 5 5 5 5 4 4 4 4 4 4 4 4 4 4 4 4 4 4 3 3 3 3 3 3 3 3 3 3 4 4 4 4 4 4 4 4 4 4 4 4 4
6 5 5 5 5 5 5 4 4 4 4 4 4 4 4 4 4 4 4 3 3 3 3 3 3 3 3 3 3 4 4 4 4 4 4 4 4 5 4 4 4 4 4
5 5 5 5 5 5 5 5 5 5 5 4 4 4 4 4 3 3 3 3 3 3 3 3 3 3 3 3 3 4 4 4 4 5 5 5 5 5 5 5 5 4 4
5 5 5 5 5 5 5 5 5 5 5 5 4 4 4 3 3 3 3 3 3 3 3 3 3 3 3 4 4 4 4 4 5 5 5 5 5 5 5 5 5 5 4
5 5 5 5 5 5 5 5 5 5 5 5 4 4 4 3 3 3 2 2 2 3 3 3 3 4 4 4 4 4 4 4 5 5 5 5 5 5 5 5 5 5 5
5 5 5 5 5 5 5 5 5 5 5 5 4 4 4 3 3 3 3 2 2 3 3 3 4 4 4 4 4 4 5 5 5 5 5 5 6 6 6 6 5 5 5
5 5 5 5 5 5 5 5 5 5 4 4 4 4 3 3 3 3 3 3 3 3 4 4 4 4 4 4 4 5 5 5 5 5 5 5 6 6 6 6 6 6 5
6 6 6 6 5 5 5 5 4 4 4 4 3 3 3 3 3 3 3 3 4 4 4 4 4 4 4 4 5 5 5 5 5 5 6 6 6 6 6 6 6 6 5
6 6 6 6 6 5 5 5 4 4 4 4 3 3 3 3 3 3 4 4 4 4 4 4 4 4 4 5 5 5 5 5 5 6 6 6 6 6 6 6 6 6 5
6 6 6 6 6 6 5 5 4 4 4 3 3 3 3 3 3 4 4 4 4 4 4 4 4 4 4 5 5 5 5 6 6 6 6 6 6 6 6 6 6 6 6
6 6 6 6 6 6 5 5 5 4 4 3 3 3 3 4 4 4 4 4 4 4 4 4 4 5 5 5 5 5 5 5 5 6 6 6 6 6 6 7 7 6 6
6 6 6 6 6 6 5 5 5 4 4 4 3 3 4 4 4 4 4 4 4 4 4 4 5 5 5 5 5 5 5 5 5 5 6 6 6 6 7 7 7 7 6
6 6 6 6 6 6 5 5 5 4 4 4 4 4 4 4 4 4 4 4 4 4 4 4 4 5 5 5 5 5 5 5 5 5 5 6 6 6 7 7 7 7 6
7 6 6 6 6 6 5 5 5 4 4 4 4 4 4 4 4 4 4 4 4 4 4 4 4 4 4 4 4 4 4 4 4 5 5 6 6 6 6 7 7 6 6
7 7 7 6 6 6 5 5 5 4 4 4 4 4 4 4 4 4 4 4 3 3 3 3 4 4 3 3 4 4 4 4 4 5 5 5 6 6 6 6 6 6 6
7 7 7 6 6 5 5 5 5 5 4 4 4 4 4 4 4 3 3 3 3 3 3 3 3 3 3 3 3 4 4 4 4 5 5 5 6 6 6 6 6 6 6
8 7 7 7 6 6 5 5 5 5 4 4 4 4 4 4 4 3 3 3 3 3 3 3 3 3 3 3 4 4 4 4 4 5 5 5 6 6 6 6 6 6 6
8 7 7 7 6 6 5 5 5 4 4 4 4 4 4 4 4 3 3 3 3 3 3 3 3 3 3 3 4 4 4 4 4 5 5 5 5 5 6 6 6 6 6
8 7 7 7 6 6 5 5 5 4 4 4 4 4 4 4 4 3 3 3 3 3 3 2 2 3 3 3 4 4 4 4 4 5 5 5 5 5 5 6 6 6 6
Wind_Speed
17 17 18 17 17 17 17 16 15 14 14 14 14 14 13 13 11 10 10 9 9 8 7 7 7 6 5 4 4 4 3 2 2 3 3 3 3 3 5 8 11 13 14
16 17 17 17 17 17 16 15 14 14 12 12 12 12 12 11 9 9 9 8 7 7 6 5 5 4 4 4 4 4 3 2 2 4 4 4 5 5 4 4 9 11 11
16 16 16 16 16 16 15 13 13 12 12 11 11 11 10 9 8 7 5 5 4 4 3 3 3 3 4 3 3 3 3 4 3 4 5 5 5 5 4 4 6 6 11
15 15 15 14 14 13 12 11 11 10 10 9 9 8 9 9 9 8 5 3 3 3 2 3 3 3 4 4 4 4 5 5 5 5 5 5 5 4 3 4 5 5 6
14 14 13 12 11 11 10 9 8 8 8 7 7 7 7 8 9 10 9 6 4 4 3 3 2 1 2 2 4 4 5 5 6 6 6 6 5 5 5 4 6 6 6
12 12 11 10 10 9 8 7 7 6 6 6 6 7 8 8 9 11 10 8 7 6 5 5 4 2 3 5 6 7 7 6 6 6 7 7 7 6 5 6 6 6 5
10 10 10 9 9 7 7 6 6 5 5 5 5 6 7 6 7 10 12 8 7 5 4 4 6 5 4 5 5 8 9 12 12 9 9 9 8 7 6 7 7 7 8
9 9 9 8 8 6 5 5 4 4 4 3 4 5 6 5 6 9 13 8 7 4 3 3 3 3 5 6 8 8 8 7 7 7 8 9 9 6 5 6 8 8 8
9 8 7 7 7 5 5 5 3 3 2 2 4 5 5 4 4 9 11 8 6 6 4 3 3 4 4 6 7 8 8 7 9 10 12 14 17 18 13 5 7 7 8
8 8 7 6 6 6 5 4 2 2 2 2 3 4 4 4 2 6 10 7 7 8 5 3 4 4 4 6 6 7 8 8 9 11 10 12 13 15 16 9 7 7 6
7 7 6 5 4 5 3 3 3 3 3 3 2 3 4 4 2 3 6 6 7 8 7 5 3 3 7 9 7 7 8 9 9 9 8 7 6 5 6 7 7 6 6
6 5 4 3 3 4 2 2 3 4 3 2 2 3 3 4 2 1 6 7 7 7 7 6 5 9 12 13 9 9 11 10 7 7 7 7 6 5 5 4 6 7 8
5 3 3 3 2 2 3 3 3 3 4 4 4 4 3 3 2 3 7 10 9 6 7 11 13 14 12 10 7 10 9 6 6 6 7 7 6 5 5 4 4 4 4
3 2 1 1 1 2 3 5 5 6 7 6 6 5 5 5 7 7 8 8 9 7 8 11 13 11 8 8 9 6 4 5 5 5 6 6 5 5 5 3 3 2 1
1 0 0 0 1 2 4 5 6 6 5 5 6 7 6 6 5 6 6 7 8 8 10 8 6 5 5 4 4 4 4 4 4 4 5 5 5 5 4 3 2 2 2
0 1 1 0 0 2 5 5 9 7 6 6 6 5 3 4 7 10 11 12 13 11 7 6 6 5 6 6 5 5 4 4 4 4 4 5 5 5 4 3 3 2 2
1 1 2 1 1 1 2 4 5 3 2 1 2 4 5 8 10 12 12 14 14 10 4 4 5 5 5 6 6 5 5 5 5 5 5 5 5 5 5 4 3 3 2
2 1 2 1 2 2 2 2 3 3 3 3 3 5 7 9 11 12 12 10 6 4 4 4 5 5 5 5 6 6 6 6 6 6 5 6 6 6 5 5 3 3 2
1 1 2 2 2 3 3 3 3 4 3 3 2 2 5 8 10 11 9 5 5 5 6 5 5 5 5 5 5 6 6 6 7 6 6 7 6 6 6 5 4 5 4
2 2 2 1 1 3 4 3 3 3 3 3 3 4 4 4 3 4 4 4 5 6 7 7 7 7 7 7 7 7 7 7 8 8 8 7 7 6 6 6 5 5 4
4 5 4 2 2 4 4 3 3 3 3 2 3 4 3 5 5 5 5 5 6 7 6 7 7 7 8 8 8 9 9 9 9 9 10 9 8 6 5 5 5 5 6
1 5 4 3 4 4 3 2 2 2 2 2 2 2 1 3 4 5 5 6 6 5 6 6 7 7 8 8 9 9 9 10 10 10 11 11 9 7 5 5 5 4 5
1 3 4 4 4 4 2 2 2 2 2 2 2 2 3 4 4 5 6 5 5 6 9 9 7 9 12 13 14 11 9 9 9 10 11 11 10 8 5 5 6 6 6
1 3 4 4 4 3 3 3 3 3 3 3 3 3 3 3 3 5 5 5 5 7 8 9 11 13 15 15 15 14 14 14 13 13 14 12 9 7 7 6 5 7 6
1 4 4 4 4 4 4 3 3 3 3 3 3 3 3 3 4 5 5 5 6 7 9 10 11 13 16 16 16 17 22 23 20 18 16 12 7 8 9 8 6 5 6
3 5 4 4 4 4 4 4 4 3 3 3 3 2 3 3 4 5 5 5 5 6 8 9 13 15 16 16 18 22 25 26 28 27 19 11 7 6 8 8 9 7 7
Wind_Direction
70 72 73 73 74 75 75 76 76 74 73 73 72 71 68 65 62 62 62 58 60 56 50 48 41 35 25 16 13 15 23 33 357 323 336 347 331 302 294 287 286 283 280
76 78 78 79 78 78 77 75 75 75 72 73 73 72 70 68 63 62 60 55 54 52 43 40 34 33 21 20 4 354 350 334 318 315 317 309 302 291 271 262 284 294 301
79 81 80 79 79 79 79 78 76 76 73 71 70 69 67 64 60 57 58 55 51 48 36 27 28 29 22 9 333 338 332 336 323 309 301 294 286 289 296 297 300 299 299
82 81 80 80 81 82 82 82 81 80 79 76 73 70 65 55 43 31 22 36 26 26 16 358 16 31 28 356 339 353 343 332 315 303 293 295 295 306 326 321 309 299 295
87 86 86 87 87 86 85 85 86 86 87 86 80 76 72 59 37 22 3 9 4 5 359 350 352 74 84 320 338 348 334 330 320 314 313 314 319 340 338 320 308 304 293
92 93 94 93 91 91 93 94 93 92 91 89 84 76 65 55 31 18 7 353 345 354 357 348 327 163 209 241 264 276 279 288 303 308 306 311 318 325 324 313 310 313 309
98 99 100 99 97 98 98 96 93 93 93 88 88 87 83 60 22 3 356 334 316 322 337 336 341 11 9 354 325 294 273 263 253 259 279 288 297 309 317 315 313 310 298
104 103 102 101 99 98 94 92 90 86 83 83 85 92 95 71 12 355 345 321 305 313 313 310 323 358 22 5 333 320 310 299 276 252 252 265 278 292 302 297 293 294 289
102 101 100 98 96 90 84 82 76 73 74 76 76 93 105 95 9 354 349 325 334 335 327 355 357 45 55 356 324 315 315 317 319 307 276 271 275 280 277 284 286 295 303
101 97 92 86 82 76 67 60 47 22 26 39 66 81 102 110 50 351 350 343 353 348 354 25 62 36 356 332 318 315 316 325 329 320 304 289 278 273 267 240 254 277 293
105 104 102 99 95 85 61 28 3 7 16 13 40 82 105 110 146 312 339 349 354 342 345 351 31 343 319 308 296 283 294 310 307 300 300 300 294 283 271 250 235 245 268
102 100 100 91 81 79 48 3 355 350 358 29 48 66 108 132 103 295 303 308 310 322 330 340 338 313 309 303 293 286 302 309 297 304 311 310 307 301 288 274 265 255 253
107 103 88 74 54 28 356 1 8 7 16 24 31 46 60 72 75 346 320 310 305 302 320 320 311 305 305 302 300 304 306 297 304 313 314 310 304 296 293 297 297 288 282
117 123 141 141 82 52 26 22 33 27 22 13 21 23 26 48 31 7 349 343 347 344 339 321 314 310 307 301 306 305 291 296 303 301 301 303 313 319 319 320 328 339 341
131 192 244 115 99 96 79 53 52 60 51 26 14 12 15 17 5 338 330 332 334 331 326 314 325 339 343 342 338 329 315 314 313 304 306 316 323 323 324 335 349 0 4
271 300 300 206 150 140 128 105 64 86 92 71 47 21 36 20 331 326 325 320 314 315 320 323 340 351 357 357 354 345 336 334 324 322 329 334 340 339 337 345 10 20 22
271 311 314 4 83 88 117 139 139 125 101 24 342 338 331 322 317 317 323 324 312 309 313 332 351 353 358 352 349 345 341 342 344 349 356 349 343 342 341 346 14 17 33
257 223 294 10 54 66 65 83 114 136 155 168 217 260 285 296 302 307 321 328 332 355 0 1 358 354 351 345 346 346 345 353 355 352 355 346 341 342 341 344 7 11 21
289 45 28 33 58 85 77 70 69 72 81 97 137 203 258 280 281 287 304 321 346 6 9 359 352 350 348 351 356 350 351 357 358 355 351 343 340 340 343 351 8 14 9
133 84 350 337 76 101 93 81 72 69 70 68 54 33 11 338 344 1 1 358 6 12 11 357 351 359 2 2 3 358 1 7 5 358 347 340 338 340 348 -0 10 11 6
172 154 191 223 89 90 90 82 70 62 61 60 61 61 359 339 354 7 9 14 17 14 11 354 352 8 12 8 3 1 10 11 4 354 345 338 336 343 350 358 7 17 9
130 154 154 120 104 89 83 84 78 80 70 62 68 121 265 319 1 9 18 22 18 12 12 360 3 16 17 9 4 9 12 7 356 348 340 335 336 344 358 1 5 17 19
261 129 128 121 114 121 143 103 83 78 75 71 49 35 47 25 16 17 23 21 15 15 13 9 13 21 22 16 13 23 14 355 339 330 331 331 331 339 353 358 7 12 21
174 117 117 120 118 127 119 100 84 74 68 68 49 38 39 30 18 28 30 22 17 17 18 23 31 26 27 25 16 14 6 351 339 330 327 321 326 349 350 352 9 16 12
161 114 115 111 108 109 111 107 93 75 60 57 52 40 23 19 28 40 38 17 20 28 23 31 43 35 23 23 16 5 358 359 357 348 334 325 337 1 347 350 5 18 13
112 111 116 117 117 116 115 111 104 95 83 71 57 38 16 27 42 43 38 21 19 36 30 31 52 47 27 16 8 4 4 3 358 353 343 333 349 11 356 357 2 10 14
Height
1515 1515 1515 1516 1517 1518 1520 1521 1523 1525 1526 1526 1527 1527 1528 1529 1530 1531 1530 1531 1531 1531 1531 1531 1531 1531 1532 1532 1533 1533 1534 1534 1534 1534 1535 1534 1534 1533 1532 1531 1530 1527 1525
1519 1519 1520 1521 1521 1522 1524 1526 1527 1528 1529 1529 1530 1531 1531 1532 1532 1532 1532 1533 1533 1532 1532 1532 1532 1532 1532 1532 1533 1533 1533 1533 1533 1532 1532 1532 1532 1531 1529 1528 1526 1524 1522
1525 1525 1525 1525 1526 1527 1529 1531 1532 1532 1532 1533 1533 1534 1534 1534 1534 1535 1535 1535 1534 1534 1534 1534 1533 1533 1532 1533 1532 1532 1532 1532 1531 1530 1530 1530 1529 1528 1526 1524 1522 1520 1517
1530 1530 1530 1531 1532 1533 1534 1535 1536 1536 1536 1537 1537 1537 1537 1537 1537 1537 1537 1536 1536 1536 1535 1535 1534 1533 1533 1532 1532 1531 1530 1530 1529 1528 1528 1527 1526 1525 1523 1520 1518 1516 1514
1535 1535 1535 1536 1537 1538 1538 1539 1539 1540 1540 1541 1541 1541 1540 1539 1539 1539 1538 1538 1537 1537 1536 1535 1535 1534 1533 1532 1530 1529 1529 1528 1527 1526 1526 1525 1523 1522 1519 1517 1515 1512 1510
1540 1540 1540 1541 1542 1542 1543 1543 1544 1544 1544 1544 1544 1544 1543 1542 1541 1540 1539 1538 1538 1537 1536 1535 1534 1533 1532 1531 1529 1528 1528 1527 1526 1525 1523 1522 1521 1519 1517 1514 1512 1509 1506
1544 1545 1545 1545 1546 1547 1547 1547 1547 1547 1547 1547 1547 1546 1545 1544 1543 1541 1539 1539 1538 1537 1536 1535 1534 1533 1531 1530 1528 1527 1526 1525 1524 1523 1521 1520 1518 1517 1515 1512 1510 1507 1504
1548 1549 1549 1550 1550 1550 1551 1551 1550 1550 1550 1550 1549 1548 1547 1545 1544 1542 1540 1539 1538 1537 1536 1534 1533 1532 1530 1528 1527 1525 1524 1523 1522 1521 1520 1518 1516 1515 1513 1511 1508 1505 1502
1552 1552 1553 1553 1554 1554 1554 1554 1553 1553 1552 1552 1551 1549 1548 1547 1545 1542 1540 1538 1537 1537 1536 1534 1533 1531 1529 1527 1526 1524 1523 1522 1521 1520 1518 1516 1514 1512 1511 1508 1506 1503 1500
1554 1555 1556 1556 1556 1556 1556 1556 1555 1555 1554 1553 1552 1550 1549 1547 1545 1543 1541 1538 1537 1536 1535 1534 1532 1531 1529 1527 1525 1523 1522 1520 1519 1517 1516 1514 1512 1510 1508 1506 1504 1501 1498
1557 1557 1558 1558 1558 1558 1558 1558 1557 1556 1555 1553 1552 1551 1549 1547 1545 1543 1541 1539 1537 1536 1535 1534 1532 1530 1528 1526 1525 1523 1521 1519 1517 1516 1514 1512 1510 1508 1506 1504 1502 1500 1497
1559 1560 1560 1560 1560 1560 1559 1559 1558 1556 1555 1554 1553 1551 1549 1547 1546 1544 1542 1540 1538 1536 1535 1533 1532 1530 1528 1526 1524 1523 1521 1519 1517 1515 1513 1511 1509 1507 1505 1503 1501 1498 1495
1561 1561 1561 1561 1561 1561 1560 1559 1558 1557 1556 1555 1553 1552 1550 1548 1546 1544 1542 1540 1538 1537 1535 1533 1532 1530 1528 1526 1524 1522 1521 1519 1517 1515 1513 1510 1508 1506 1504 1502 1499 1497 1494
1562 1562 1562 1562 1562 1561 1560 1560 1558 1557 1556 1555 1553 1552 1550 1549 1546 1544 1542 1540 1539 1537 1535 1534 1532 1530 1528 1527 1525 1523 1521 1519 1517 1515 1513 1511 1508 1506 1503 1501 1498 1496 1493
1562 1563 1562 1562 1562 1561 1560 1560 1558 1557 1556 1554 1552 1551 1549 1548 1546 1544 1543 1541 1539 1538 1536 1535 1533 1531 1529 1527 1526 1524 1522 1520 1518 1516 1514 1511 1509 1506 1503 1501 1498 1496 1493
1563 1563 1562 1562 1561 1561 1560 1559 1558 1557 1556 1554 1552 1551 1550 1549 1547 1546 1545 1543 1542 1540 1538 1536 1535 1533 1531 1529 1527 1525 1523 1521 1519 1517 1514 1512 1509 1506 1504 1501 1499 1496 1494
1563 1562 1562 1562 1561 1561 1560 1560 1559 1558 1557 1556 1554 1553 1551 1550 1549 1548 1547 1545 1544 1542 1540 1539 1537 1535 1533 1531 1529 1526 1524 1522 1520 1517 1515 1513 1510 1507 1505 1502 1500 1497 1495
1562 1562 1562 1562 1561 1561 1561 1560 1560 1559 1558 1557 1556 1555 1554 1553 1551 1550 1549 1547 1546 1544 1543 1541 1539 1537 1535 1533 1530 1528 1526 1523 1521 1518 1516 1513 1511 1508 1506 1503 1501 1498 1496
1562 1562 1562 1562 1562 1561 1561 1561 1561 1560 1559 1559 1558 1557 1556 1555 1554 1552 1551 1550 1548 1547 1545 1543 1541 1539 1536 1534 1532 1529 1527 1524 1522 1519 1517 1515 1512 1510 1507 1505 1502 1500 1497
1561 1561 1561 1561 1562 1562 1562 1562 1562 1561 1561 1560 1560 1559 1558 1557 1556 1554 1553 1551 1550 1548 1546 1544 1542 1540 1538 1535 1533 1530 1528 1525 1523 1520 1518 1516 1513 1511 1509 1506 1504 1501 1499
1560 1561 1561 1561 1562 1562 1562 1562 1562 1562 1562 1561 1561 1560 1559 1558 1557 1556 1554 1553 1551 1549 1546 1544 1543 1541 1538 1536 1533 1531 1528 1526 1523 1521 1518 1516 1514 1513 1510 1508 1505 1503 1501
1560 1561 1561 1562 1562 1562 1563 1563 1563 1563 1562 1562 1562 1561 1560 1559 1558 1557 1555 1553 1551 1549 1547 1545 1544 1541 1539 1536 1534 1531 1529 1526 1524 1522 1520 1517 1515 1514 1512 1510 1507 1505 1503
1560 1561 1561 1562 1562 1562 1563 1563 1563 1563 1563 1562 1562 1562 1561 1560 1559 1558 1556 1554 1552 1550 1548 1546 1544 1542 1540 1537 1535 1532 1529 1527 1525 1523 1521 1519 1517 1515 1514 1512 1509 1507 1505
1560 1561 1561 1562 1562 1563 1563 1563 1563 1563 1563 1563 1563 1562 1562 1560 1559 1558 1556 1554 1553 1551 1549 1547 1545 1543 1540 1538 1535 1533 1531 1528 1527 1525 1523 1520 1519 1517 1515 1513 1511 1509 1507
1560 1561 1561 1562 1563 1563 1563 1564 1564 1564 1564 1564 1563 1563 1562 1561 1560 1558 1557 1555 1554 1552 1550 1548 1546 1543 1541 1538 1536 1534 1531 1530 1528 1526 1524 1522 1520 1518 1516 1514 1512 1510 1508
1560 1561 1562 1562 1563 1563 1564 1564 1564 1564 1564 1564 1564 1563 1562 1562 1560 1559 1557 1556 1555 1553 1551 1549 1546 1543 1541 1539 1536 1534 1532 1530 1529 1527 1525 1523 1521 1519 1517 1515 1514 1512 1510